Weather in Senda

Russia / Mari El Republic     56°47′07″N   49°54′49″E
temp.,
°C
wind,
m/s
gust,
m/s
humid.,
%
clouds,
%
prec.,
mm/h
press.,
hPa
HPBL,
m
25 february, thu
thu2500:00−26wnw229872 0.0 103420
03:00−27sw229952 0.0 103319
06:00−26ssw239753 0.0 103231
09:00−22s479376 0.0 1029226
12:00−19sse5991100 0.0 1026317
15:00−18sse61190100 0.0 1023423
18:00−18sse61295100 0.4 1021525
21:00−18sse61194100 0.8 1020557
26 february, fri
fri2600:00−18sse51095100 0.3 1018521
03:00−18sse51095100 0.6 1018477
06:00−18sse4995100 0.2 1016396
09:00−17se5993100 0.3 1016438
12:00−14se6991100 0.1 1014514
15:00−13se61191100 0.3 1012573
18:00−12se71392100 0.1 1008526
21:00−11se81593100 0.9 1003508
27 february, sat
sat2700:00−11se81594100 4.1 997603
03:00−10se71294100 8.1 995483
06:00−9e5995100 2.1 993319
09:00−9ene4695100 3.4 994266
12:00−8ne4695100 1.1 994334
15:00−7nne4795100 1.9 996414
18:00−9nne5995100 0.7 997416
21:00−12nne51094100 1.0 1000363
28 february, sun
sun2800:00−15n5995100 0.1 1001327
03:00−16n5995100 0.2 1003333
06:00−19n5109699 0.1 1005284
09:00−19n599495 0.1 1006278
12:00−16n589291 0.0 1008408
15:00−15n699295 0.0 1010507
18:00−17n5109599 0.0 1012303
21:00−18n5109595 0.1 1015261
1 march, mon
mon100:00−20n489846 0.0 1016155
03:00−22n479824 0.0 1019138
06:00−23n36974 0.0 1021109
09:00−20n46966 0.0 1022222
12:00−15nnw349145 0.0 1022276
15:00−14nw359147 0.0 1022312
18:00−18w33941 0.0 102127
21:00−17sw369543 0.0 1019123